Location: Haram ta Haram Freeway
(35.0583°N, 51.4202°E)
Time: 09:10:12
(UTC+03:30)

Tiangong - Pass Details

Date: 09 October 2022
Orbit: 386 x 393 km, 41.5° (Epoch: 28 November)

Event Time Altitude Azimuth Distance (km) Brightness Sun altitude
Rises 18:04:03 0° 238° (WSW) 2,268 3.0 -6.2°
Reaches altitude 10° 18:06:07 10° 236° (WSW) 1,419 1.8 -6.6°
Maximum altitude 18:09:18 70° 153° (SSE) 420 -2.1 -7.3°
Drops below altitude 10° 18:12:32 10° 69° (ENE) 1,435 0.2 -8.0°
Enters shadow 18:12:37 10° 69° (ENE) 1,466 0.2 -8.0°
